GSAT-6

Last updated on Wed Sep 17 2025 00:02:48 GMT+0000 (Coordinated Universal Time)

1 40880U 15041A 25259.59273043 -.00000179 00000+0 00000+0 0 9993 2 40880 1.2064 86.2418 0003291 91.0219 114.4120 1.00269766 36853
UTC large
Height (km)
Speed (km/s)
/
Latitude / Longitude
Inclination (degrees)
Orbital Period (minutes)
Azimuth
Elevation
Range (km)
Doppler Factor

Next 0 passes for location: London (51.5072 / 0.1276)

Sorry there are no passes over London.